Regional Weather Roundup
Issued by NWS

Home | Current Version | Previous Version | Graphics & Text | Print | Product List | Glossary On
Versions: 1 2 3 4 5 6 7 8 9 10 11 12 13 14 15 16 17 18 19 20 21 22 23 24 25 26 27 28 29 30 31 32 33 34 35 36 37 38 39 40 41 42 43 44 45 46 47 48 49 50
747
ASUS43 KLMK 271802
RWRKY
KENTUCKY REGIONAL WEATHER ROUNDUP
NATIONAL WEATHER SERVICE LOUISVILLE KY
100 PM EST MON FEB 27 2017

NOTE "FAIR" INDICATES FEW OR NO CLOUDS BELOW 12,000 FEET
WITH NO SIGNIFICANT WEATHER AND/OR OBSTRUCTIONS TO VISIBILITY.

KYZ001>023-026-027-061>063-070>075-271900-
WESTERN AND SOUTH CENTRAL KENTUCKY

CITY           SKY/WX    TMP DP  RH WIND       PRES   REMARKS
PADUCAH        CLOUDY    58  44  60 S9        30.14F
HENDERSON      PTSUNNY   55  45  67 SE3       30.16F
OWENSBORO      CLOUDY    55  46  71 S5        30.18F
HOPKINSVILLE   SUNNY     59  42  52 SE10      30.16F
BOWLING GREEN  SUNNY     59  38  45 S16G28    30.20F
GLASGOW        NOT AVBL
$$

KYZ024-025-028>034-038-045-046-053-271900-
NORTH CENTRAL KENTUCKY

CITY           SKY/WX    TMP DP  RH WIND       PRES   REMARKS
LOUISVILLE/SDF CLOUDY    49  43  80 CALM      30.21F
LOUISVILLE/LOU CLOUDY    49  44  83 CALM      30.22F
FORT KNOX      CLOUDY    48  46  91 E7        30.19F
$$

KYZ035>037-039>044-047>052-055>060-089>105-271900-
NORTHEAST KENTUCKY

CITY           SKY/WX    TMP DP  RH WIND       PRES   REMARKS
LEXINGTON      CLOUDY    47  39  74 SE9       30.25F
COVINGTON      LGT RAIN  44  42  93 S9        30.24F FOG
FRANKFORT      CLOUDY    48  42  80 SE8       30.22F
$$

KYZ054-064>069-076>088-106>120-271900-
SOUTHEAST KENTUCKY

CITY           SKY/WX    TMP DP  RH WIND       PRES   REMARKS
JACKSON        CLOUDY    52  27  38 CALM      30.24F
LONDON         CLOUDY    54  20  26 S13G22    30.24S
SOMERSET       CLOUDY    54  30  40 S25G32    30.25F
MIDDLESBORO    CLOUDY    51  25  35 SE5       30.27F
MONTICELLO     CLOUDY    58  36  43 S16G29    30.24F
$$





USA.gov is the U.S. government's official web portal to all federal, state and local government web resources and services.